CZ-6A DEB, 61339

Orbit data source: Space-Track

CZ-6A DEB, 61339 is space debris in LEO originally from a launch on Tue, 06 Aug 2024 UTC launched from the Taiyaun Space Center, China (TSC). Debris objects in space refer to the collection of defunct objects orbiting the Earth. Examples of debris include non-operational satellites, rocket bodies, and fragments generated from explosions, collisions, or faulty payload assembly.

Loading next visibility...
Identifier
61339, 2024-140VC
Orbit
LEO
Country
Flag of CNCN / PRC
Related business
Manufacturer
SAST
Mission
Spacecraft
Bus & Motor
Unknown
Mass
Unknown
Launch date (UTC)
2024-08-06 (2 years ago)
Launch vehicle
Unknown
Launch site
Taiyaun Space Center, China (TSC)
Object type
Payload
Rocket body
Debris
Shape & HBR
Unknown shape, 0.1 m
Radar Cross Section
Small (<0.1 m²)

Expand to show TLE details & history
Last TLE update: 1 day ago

TLE from 1 day ago
0 CZ-6A DEB
1 61339U 24140VC  26129.36437777  .00000333  00000-0  70850-4 0  9990
2 61339  88.9756 273.3548 0111381  38.3512 322.5548 14.52593579 88999
Epoch: 2026-05-09T08:44Z
TLE epoch observation values (Epoch: 2026-05-09T08:44:42.239Z)
Latitude
-0.00003°
Longitude
-85.00407°
Altitude
657.862 km
Speed
7.561 km/s
True Right ascension
18h 13m 25s
True Declination
0° 00' 00"
Sunlit
Object was in full shadow at epoch
Visualization orbit readout
Latitude
Unknown
Longitude
Unknown
Altitude
Unknown
Speed
Unknown
Apparent Right ascension
Unknown
Apparent Declination
Unknown
Sunlit
N/A
Visualization observer readout
Local Sidereal Time
22:11:40
Azimuth
Unknown
Elevation
Unknown
Doppler factor
Unknown
Orbital elements
Apogee altitude
793.088 km
Perigee altitude
635.1 km
Semi-major axis
7,092.231 km
Eccentricity
0.01114
Inclination
88.9756°
RAAN
273.3548°
Arg. of periapsis
38.3512°
True anomaly
321.77014°
Mean anomaly
322.5548°
Eccentric anomaly
322.16334°
Mean motion
3.63387 °/min
Orbital period
99.07 mins
BSTAR
0.00007085
Loading maneuver chart data...
Computing Atmospheric mass density...
Loading historical data...
Loading historical data...
Loading historical data...
Loading historical data...
Loading historical data...
Loading historical data...
Loading historical data...

Documentation

Showing up to 5 results
|